Location: Newark
(47.5833°N, 8.1500°E)
Time: 09:02:59
(UTC+00:00)

Tiros 1 despin weight - Pass Details

Date: 06 November 2020
Orbit: 593 x 642 km, 48.2° (Epoch: 26 November)

Event Time Altitude Azimuth Distance (km) Brightness Sun altitude
Rises 00:54:40 0° 284° (WNW) 2,870 - -51.9°
Reaches altitude 10° 00:57:00 10° 282° (WNW) 1,956 - -51.7°
Maximum altitude 01:01:26 66° 200° (SSW) 655 - -51.1°
Drops below altitude 10° 01:05:49 10° 118° (ESE) 1,928 - -50.6°
Sets 01:08:06 0° 116° (ESE) 2,824 - -50.3°
